Date,TemperatureHighF,TemperatureAvgF,TemperatureLowF,DewpointHighF,DewpointAvgF,DewpointLowF,HumidityHigh,HumidityAvg,HumidityLow,PressureMaxIn,PressureMinIn,WindSpeedMaxMPH,WindSpeedAvgMPH,GustSpeedMaxMPH,PrecipitationSumIn
2013-5-1,87.3,68.5,49.3,29.0,12.4,-6.0,46,13,5,29.83,29.42,14,4,0,0.00
2013-5-2,60.7,49.3,36.6,29.0,16.5,9.0,56,31,13,30.25,29.84,16,4,0,0.00
2013-5-3,65.4,50.8,33.4,16.0,12.4,7.0,41,24,11,30.25,29.83,14,3,0,0.00
2013-5-4,75.5,60.7,40.3,12.0,8.3,2.0,28,14,6,29.85,29.61,8,1,0,0.00
2013-5-5,73.5,61.5,49.2,32.0,19.6,9.0,31,20,13,29.85,29.69,8,1,0,0.00
2013-5-6,69.8,61.2,54.6,37.0,26.2,15.0,42,27,18,29.74,29.65,12,3,0,0.00
2013-5-7,75.2,62.3,44.6,35.0,30.2,25.0,55,32,16,29.79,29.57,13,3,0,0.00
2013-5-8,74.5,60.9,47.0,36.0,26.2,17.0,57,30,14,29.75,29.64,12,2,0,0.00
2013-5-9,73.7,60.9,47.9,33.0,25.1,19.0,39,27,13,29.84,29.69,9,2,0,0.00
2013-5-10,67.7,59.0,49.6,45.0,35.8,32.0,76,43,29,30.04,29.81,18,3,0,0.00
2013-5-11,73.0,58.6,45.1,46.0,36.6,27.0,87,50,18,30.10,30.01,13,2,0,0.01
2013-5-12,81.0,63.5,45.0,36.0,31.6,27.0,64,34,15,30.11,29.85,14,2,0,0.00
2013-5-13,84.8,68.8,50.9,32.0,28.7,24.0,44,24,13,29.98,29.75,9,2,0,0.00
2013-5-14,86.6,69.4,50.3,42.0,26.0,17.0,39,21,10,29.81,29.54,9,2,0,0.00
2013-5-15,89.1,72.2,62.0,41.0,35.7,20.0,44,29,12,29.65,29.46,14,2,0,0.00
2013-5-16,88.8,73.3,54.5,26.0,17.2,0.0,28,14,4,29.66,29.45,12,2,0,0.00
2013-5-17,86.4,72.9,54.9,22.0,15.7,6.0,24,12,6,29.65,29.45,15,3,0,0.00
2013-5-18,79.6,69.6,55.7,31.0,18.2,8.0,31,15,7,29.62,29.42,15,4,0,0.00
2013-5-19,78.7,64.5,52.9,35.0,29.3,17.0,50,29,10,29.62,29.51,16,5,0,0.00
2013-5-20,78.4,65.0,48.6,37.0,28.8,15.0,55,29,10,29.69,29.53,15,3,0,0.00
2013-5-21,84.9,65.1,46.6,34.0,27.3,17.0,56,29,8,29.78,29.55,15,2,0,0.00
2013-5-22,85.4,71.7,53.0,25.0,18.3,6.0,33,16,5,29.62,29.43,13,3,0,0.00
2013-5-23,90.0,75.6,55.9,40.0,13.6,-6.0,32,11,3,29.62,29.41,19,4,0,0.00
2013-5-24,87.3,75.0,60.8,52.0,33.3,16.0,58,28,8,29.69,29.51,13,3,0,0.00
2013-5-25,90.3,75.0,55.6,35.0,19.1,-4.0,42,15,3,29.71,29.47,11,3,0,0.00
2013-5-26,88.5,75.7,58.1,15.0,6.0,-26.0,17,8,1,29.67,29.45,15,3,0,0.00
2013-5-27,86.6,72.3,58.1,20.0,5.7,-14.0,12,8,2,29.62,29.44,12,3,0,0.00
2013-5-28,84.3,71.5,52.1,19.0,10.5,-7.0,23,11,3,29.50,29.25,16,3,0,0.00
2013-5-29,86.5,70.5,57.7,38.0,23.8,7.0,44,20,7,29.39,29.25,16,3,0,0.00
2013-5-30,91.6,72.8,53.5,25.0,19.0,14.0,25,14,6,29.54,29.39,14,3,0,0.00
2013-5-31,88.2,74.8,60.2,36.0,21.4,-1.0,37,16,6,29.61,29.47,17,4,0,0.00